Upstream stations:
SHEF ID: TRST2 N Wichita Rv nr Truscott, TX
STATION TYPE:
PRECIP STAGE RIV-FLOW BAT-LOAD
in ft cfs volt
Ccp-Rev Ccp-Rev Ccp-Rev Ccp-Rev
(US/Central)
07/02 00:00 0.00 5.78 0 11.37
07/02 01:00 0.00 5.78 0 11.30
07/02 02:00 0.00 5.79 0 11.22
07/02 03:00 0.00 5.79 0 11.30
07/02 04:00 0.00 ---- ---- ----
07/02 05:00 0.00 ---- ---- ----
07/02 06:00 0.00 5.81 0 ----
07/02 07:00 0.00 5.81 0 11.14
07/02 08:00 0.00 5.81 0 11.53
07/02 09:00 0.00 5.79 0 11.93
07/02 10:00 0.00 5.79 0 12.17
07/02 11:00 0.00 5.77 0 12.33
07/02 12:00 0.00 5.74 0 12.41
07/02 13:00 0.00 5.72 0 12.41
07/02 14:00 0.00 5.74 0 12.41
07/02 15:00 0.00 5.73 0 12.41
07/02 16:00 0.00 5.73 0 12.41
07/02 17:00 0.00 5.73 0 12.25
07/02 18:00 0.00 5.73 0 12.09
07/02 19:00 0.00 5.73 0 11.70
07/02 20:00 0.00 5.74 0 11.53
07/02 21:00 0.00 5.75 0 11.37
07/02 22:00 0.00 5.76 0 11.37
07/02 23:00 ---- ---- ---- ----